This is the latest recevied weather packets stored in our database for station/object KF4PPJ. If no packets are shown the sender has not sent any weather packets the latest 1 day(s).
| Time | Temp. | Humidity | Pressure | Rain* | Wind** | Luminosity | Snow |
|---|---|---|---|---|---|---|---|
| 1778060100 | 11.67° C | 87% | 1020.7 hPa | 0 mm | 2.24 m/s, 195° | 0 W/m² | - |
| 1778059798 | 11.67° C | 87% | 1020.6 hPa | 0 mm | 1.79 m/s, 156° | 0 W/m² | - |
| 1778059495 | 12.22° C | 87% | 1020.5 hPa | 0 mm | 1.34 m/s, 214° | 0 W/m² | - |
| 1778059191 | 12.22° C | 88% | 1020.5 hPa | 0 mm | 1.34 m/s, 193° | 0 W/m² | - |
| 1778058890 | 12.22° C | 88% | 1020.5 hPa | 0 mm | 1.79 m/s, 230° | 0 W/m² | - |
| 1778058587 | 12.22° C | 88% | 1020.5 hPa | 0 mm | 0.89 m/s, 194° | 0 W/m² | - |
| 1778058285 | 12.22° C | 88% | 1020.5 hPa | 0 mm | 1.34 m/s, 206° | 0 W/m² | - |
| 1778057981 | 12.22° C | 87% | 1020.4 hPa | 0 mm | 1.34 m/s, 202° | 0 W/m² | - |
| 1778057678 | 12.22° C | 87% | 1020.2 hPa | 0 mm | 1.34 m/s, 195° | 0 W/m² | - |
| 1778057374 | 12.22° C | 88% | 1020.3 hPa | 0 mm | 0.89 m/s, 162° | 0 W/m² | - |
| 1778057071 | 12.22° C | 88% | 1020.4 hPa | 0 mm | 0.89 m/s, 210° | 0 W/m² | - |
| 1778056767 | 12.22° C | 88% | 1020.1 hPa | 0 mm | 0.89 m/s, 187° | 0 W/m² | - |
| 1778056465 | 12.22° C | 87% | 1020.2 hPa | 0 mm | 0 m/s | 0 W/m² | - |
| 1778056162 | 12.22° C | 87% | 1020.3 hPa | 0 mm | 0.45 m/s, 160° | 0 W/m² | - |
| 1778055859 | 12.22° C | 87% | 1020.2 hPa | 0 mm | 0.45 m/s, 175° | 0 W/m² | - |
| 1778055554 | 12.22° C | 87% | 1020.3 hPa | 0 mm | 0.89 m/s, 151° | 0 W/m² | - |
| 1778055253 | 11.67° C | 88% | 1020.3 hPa | 0 mm | 1.34 m/s, 178° | 0 W/m² | - |
| 1778054950 | 11.67° C | 87% | 1020.3 hPa | 0 mm | 1.34 m/s, 198° | 0 W/m² | - |
| 1778054647 | 12.22° C | 88% | 1020.2 hPa | 0 mm | 1.34 m/s, 215° | 0 W/m² | - |
| 1778054345 | 11.67° C | 88% | 1020.1 hPa | 0 mm | 0.45 m/s, 183° | 0 W/m² | - |
| 1778054042 | 11.67° C | 88% | 1019.9 hPa | 0 mm | 1.34 m/s, 166° | 0 W/m² | - |
| 1778053739 | 11.67° C | 89% | 1020.1 hPa | 0 mm | 0.45 m/s, 160° | 0 W/m² | - |
| 1778053435 | 11.67° C | 89% | 1020 hPa | 0 mm | 0.45 m/s, 183° | 0 W/m² | - |
| 1778053133 | 11.67° C | 89% | 1020 hPa | 0 mm | 0.45 m/s, 180° | 0 W/m² | - |
| 1778052831 | 12.22° C | 89% | 1019.9 hPa | 0 mm | 1.34 m/s, 175° | 0 W/m² | - |
* Rain latest hour (hover to see other rain measurements)
** Current wind speed in m/s (hover to see current wind gust speed)